Location: Galaxy Quest Observatory
(44.3404°N, 69.0569°W)
Time: 08:56:07
(UTC-04:00)

ISS - Visible Passes

Search period start: 02 April 2020 00:00
Search period end: 12 April 2020 00:00
Orbit: 416 x 423 km, 51.6° (Epoch: 02 April)

Date Brightness Start Highest point End Pass type
(mag) Time Alt. Az. Time Alt. Az. Time Alt. Az.
02 Apr -3.8 20:26:40 10° WNW 20:30:02 89° SSW 20:31:14 37° ESE visible
03 Apr -3.5 19:39:15 10° NW 19:42:35 60° NNE 19:45:51 10° ESE visible
03 Apr -1.7 21:16:32 10° W 21:18:50 21° SW 21:18:50 21° SW visible
04 Apr -2.5 20:28:46 10° WNW 20:31:50 34° SW 20:33:31 20° S visible
05 Apr -3.2 19:41:11 10° WNW 19:44:28 55° SW 19:47:45 10° SE visible
06 Apr -1.0 20:31:47 10° WSW 20:33:23 13° SW 20:35:00 10° SSW visible
07 Apr -1.5 19:43:31 10° W 19:46:07 21° SW 19:48:41 10° S visible
